DLH31Y LFBD-EDDF

Flight info

Callsign DLH31Y
Flight time 1h 27m
Altitude 36000
Route CNA DCT ADABI DCT BOKNO DCT DIBES DCT VIQAQ DCT TSU UN858 OQQAL DCT RANUX/N0416F350 DCT VALEK DCT LUTAX UM163 DIK T856 NIVNU T847 IMCOM IMCOM1A
Aircraft A319/M-SDE2E3FGIJ1LORWXYZ/HB1

Departure

Time 2026-05-04 12:07
Airport Bordeaux–Mérignac Airport (LFBD)

Arrival

Time 2026-05-04 13:34
Airport Frankfurt Main Airport (EDDF)
Time Latitude Longitude Altitude Speed Heading
2026-05-04 11:40 44.82920 -0.70145 167 ft 0 kts
2026-05-04 12:00 44.82903 -0.70146 167 ft 4 kts 359°
2026-05-04 12:00 44.82877 -0.70147 167 ft 3 kts 11°
2026-05-04 12:00 44.82858 -0.70153 168 ft 3 kts 17°
2026-05-04 12:00 44.82841 -0.70155 168 ft 4 kts 297°
2026-05-04 12:01 44.82833 -0.70124 168 ft 2 kts 286°
2026-05-04 12:01 44.82833 -0.70122 168 ft 0 kts 286°
2026-05-04 12:02 44.82833 -0.70123 168 ft 1 kts 286°
2026-05-04 12:03 44.82837 -0.70148 168 ft 5 kts 275°
2026-05-04 12:03 44.82799 -0.70180 168 ft 9 kts 192°
2026-05-04 12:03 44.82766 -0.70110 168 ft 10 kts 105°
2026-05-04 12:03 44.82749 -0.70023 169 ft 8 kts 105°
2026-05-04 12:04 44.82738 -0.69967 169 ft 6 kts 105°
2026-05-04 12:04 44.82714 -0.69931 169 ft 5 kts 186°
2026-05-04 12:04 44.82691 -0.69939 169 ft 3 kts 194°
2026-05-04 12:04 44.82688 -0.69940 169 ft 0 kts 197°
2026-05-04 12:05 44.82675 -0.69946 169 ft 4 kts 197°
2026-05-04 12:06 44.82634 -0.69963 170 ft 8 kts 197°
2026-05-04 12:06 44.82568 -0.69991 170 ft 11 kts 198°
2026-05-04 12:06 44.82559 -0.70076 170 ft 10 kts 288°
2026-05-04 12:06 44.82607 -0.70299 170 ft 57 kts 287°
2026-05-04 12:07 44.82799 -0.71205 164 ft 133 kts 286°
2026-05-04 12:07 44.83128 -0.72641 486 ft 161 kts 293°
2026-05-04 12:07 44.83525 -0.74131 1274 ft 165 kts 296°
2026-05-04 12:07 44.84379 -0.75366 1731 ft 194 kts 321°
2026-05-04 12:08 44.85632 -0.76391 2286 ft 222 kts 328°
2026-05-04 12:08 44.87078 -0.77442 2897 ft 246 kts 331°
2026-05-04 12:08 44.88643 -0.78579 3774 ft 257 kts 331°
2026-05-04 12:08 44.90249 -0.79768 4797 ft 264 kts 332°
2026-05-04 12:09 44.92042 -0.80474 5758 ft 274 kts 353°
2026-05-04 12:09 44.93965 -0.80223 6722 ft 284 kts 15°
2026-05-04 12:09 44.95744 -0.78960 7646 ft 292 kts 38°
2026-05-04 12:09 44.97284 -0.77066 8639 ft 296 kts 42°
2026-05-04 12:10 44.98833 -0.75113 9595 ft 301 kts 42°
2026-05-04 12:10 45.00418 -0.73110 10349 ft 314 kts 42°
2026-05-04 12:10 45.02105 -0.70975 10786 ft 335 kts 42°
2026-05-04 12:10 45.03865 -0.68750 11633 ft 343 kts 42°
2026-05-04 12:11 45.05661 -0.66484 12508 ft 349 kts 42°
2026-05-04 12:11 45.07485 -0.64183 13380 ft 354 kts 42°
2026-05-04 12:11 45.09335 -0.61851 14165 ft 359 kts 42°
2026-05-04 12:11 45.11209 -0.59487 14898 ft 363 kts 43°
2026-05-04 12:12 45.13092 -0.57134 15622 ft 368 kts 40°
2026-05-04 12:12 45.15231 -0.55097 16345 ft 374 kts 28°
2026-05-04 12:12 45.17672 -0.53637 17071 ft 379 kts 17°
2026-05-04 12:12 45.20164 -0.52505 17793 ft 383 kts 17°
2026-05-04 12:13 45.22714 -0.51338 18479 ft 388 kts 18°
2026-05-04 12:14 45.41337 -0.42683 22930 ft 417 kts 18°
2026-05-04 12:15 45.44145 -0.41378 23580 ft 421 kts 18°
2026-05-04 12:15 45.46904 -0.40096 24105 ft 425 kts 18°
2026-05-04 12:15 45.49724 -0.38783 24653 ft 428 kts 18°
2026-05-04 12:15 45.52566 -0.37455 25167 ft 432 kts 18°
2026-05-04 12:16 45.55432 -0.36114 25669 ft 435 kts 18°
2026-05-04 12:16 45.58316 -0.34758 26173 ft 438 kts 19°
2026-05-04 12:16 45.61217 -0.33388 26725 ft 440 kts 19°
2026-05-04 12:16 45.64132 -0.31997 27237 ft 443 kts 20°
2026-05-04 12:17 45.66945 -0.30184 27700 ft 445 kts 30°
2026-05-04 12:17 45.69580 -0.27840 28171 ft 447 kts 34°
2026-05-04 12:17 45.72206 -0.25421 28637 ft 451 kts 34°
2026-05-04 12:17 45.74855 -0.22989 29101 ft 454 kts 34°
2026-05-04 12:18 45.77518 -0.20547 29563 ft 457 kts 34°
2026-05-04 12:18 45.80203 -0.18081 30021 ft 459 kts 34°
2026-05-04 12:18 45.82899 -0.15596 30386 ft 463 kts 34°
2026-05-04 12:18 45.85616 -0.13086 30745 ft 466 kts 34°
2026-05-04 12:19 45.88348 -0.10559 31080 ft 469 kts 34°
2026-05-04 12:19 45.91100 -0.08009 31414 ft 472 kts 34°
2026-05-04 12:19 45.93869 -0.05443 31794 ft 474 kts 34°
2026-05-04 12:19 45.96639 -0.02873 32259 ft 474 kts 34°
2026-05-04 12:20 45.99411 -0.00301 32725 ft 474 kts 34°
2026-05-04 12:20 46.02178 0.02269 33177 ft 474 kts 34°
2026-05-04 12:20 46.04947 0.04849 33633 ft 474 kts 34°
2026-05-04 12:20 46.07717 0.07434 34060 ft 475 kts 34°
2026-05-04 12:21 46.10491 0.10023 34433 ft 475 kts 34°
2026-05-04 12:21 46.13261 0.12610 34809 ft 475 kts 34°
2026-05-04 12:21 46.16032 0.15201 35223 ft 474 kts 34°
2026-05-04 12:21 46.18796 0.17791 35639 ft 473 kts 34°
2026-05-04 12:22 46.21552 0.20380 35889 ft 473 kts 34°
2026-05-04 12:22 46.24297 0.22963 35943 ft 467 kts 34°
2026-05-04 12:22 46.29699 0.28051 35958 ft 461 kts 34°
2026-05-04 12:23 46.35071 0.33116 35947 ft 460 kts 34°
2026-05-04 12:23 46.40429 0.38177 35950 ft 459 kts 34°
2026-05-04 12:24 46.45783 0.43241 35946 ft 460 kts 34°
2026-05-04 12:24 46.51145 0.48339 35948 ft 461 kts 34°
2026-05-04 12:25 46.56706 0.52912 35945 ft 460 kts 21°
2026-05-04 12:25 46.62870 0.55298 35949 ft 458 kts 11°
2026-05-04 12:26 46.69090 0.57327 35948 ft 458 kts 12°
2026-05-04 12:26 46.75261 0.59375 35945 ft 458 kts 12°
2026-05-04 12:27 46.81468 0.61441 35940 ft 457 kts 12°
2026-05-04 12:27 46.87674 0.63500 35938 ft 457 kts 12°
2026-05-04 12:28 46.93880 0.65559 35936 ft 457 kts 12°
2026-05-04 12:28 47.00084 0.67629 35939 ft 457 kts 12°
2026-05-04 12:29 47.06113 0.70533 35944 ft 457 kts 27°
2026-05-04 12:29 47.11571 0.75302 35942 ft 457 kts 32°
2026-05-04 12:30 47.17000 0.80145 35942 ft 457 kts 32°
2026-05-04 12:30 47.22441 0.84976 35940 ft 457 kts 32°
2026-05-04 12:31 47.27875 0.89829 35948 ft 457 kts 32°
2026-05-04 12:31 47.33302 0.94704 35927 ft 457 kts 32°
2026-05-04 12:32 47.41436 1.02037 35937 ft 457 kts 32°
2026-05-04 12:33 47.46858 1.06937 35942 ft 457 kts 32°
2026-05-04 12:33 47.52257 1.11777 35944 ft 457 kts 30°
2026-05-04 12:34 47.57850 1.16236 35942 ft 457 kts 27°
2026-05-04 12:34 47.63437 1.20435 35949 ft 456 kts 27°
2026-05-04 12:35 47.69076 1.24739 35949 ft 456 kts 28°
2026-05-04 12:35 47.74673 1.29151 35928 ft 456 kts 28°
2026-05-04 12:36 47.80270 1.33597 35943 ft 456 kts 28°
2026-05-04 12:36 47.85872 1.38037 35945 ft 456 kts 28°
2026-05-04 12:37 47.91478 1.42463 35946 ft 456 kts 28°
2026-05-04 12:37 47.97076 1.46899 35947 ft 456 kts 28°
2026-05-04 12:38 48.02670 1.51352 35946 ft 455 kts 29°
2026-05-04 12:38 48.08254 1.55814 35945 ft 455 kts 29°
2026-05-04 12:39 48.13799 1.60253 35948 ft 455 kts 29°
2026-05-04 12:39 48.19386 1.64725 35950 ft 455 kts 29°
2026-05-04 12:40 48.24970 1.69211 35961 ft 455 kts 29°
2026-05-04 12:40 48.30552 1.73707 35942 ft 455 kts 29°
2026-05-04 12:41 48.36140 1.78214 35945 ft 457 kts 29°
2026-05-04 12:41 48.41733 1.82746 35947 ft 456 kts 29°
2026-05-04 12:42 48.47328 1.87284 35954 ft 457 kts 29°
2026-05-04 12:42 48.52918 1.91829 35958 ft 456 kts 29°
2026-05-04 12:43 48.58504 1.96392 35961 ft 456 kts 29°
2026-05-04 12:43 48.63145 2.00190 35963 ft 456 kts 29°
2026-05-04 12:44 48.68725 2.04774 35967 ft 456 kts 30°
2026-05-04 12:44 48.71336 2.07454 35967 ft 454 kts 41°
2026-05-04 12:44 48.73591 2.10773 35965 ft 451 kts 52°
2026-05-04 12:44 48.75426 2.14592 35963 ft 447 kts 63°
2026-05-04 12:45 48.76801 2.18772 35943 ft 442 kts 73°
2026-05-04 12:45 48.78522 2.27661 35947 ft 439 kts 79°
2026-05-04 12:46 48.80130 2.36602 35951 ft 440 kts 79°
2026-05-04 12:46 48.81740 2.45577 35955 ft 441 kts 79°
2026-05-04 12:47 48.83337 2.54575 35960 ft 441 kts 79°
2026-05-04 12:47 48.84922 2.63579 35935 ft 441 kts 79°
2026-05-04 12:48 48.86506 2.72585 35951 ft 442 kts 79°
2026-05-04 12:48 48.88087 2.81616 35954 ft 443 kts 79°
2026-05-04 12:49 48.89663 2.90673 35965 ft 444 kts 79°
2026-05-04 12:49 48.91232 2.99728 35964 ft 442 kts 79°
2026-05-04 12:50 48.92793 3.08767 35935 ft 442 kts 79°
2026-05-04 12:50 48.94339 3.17765 35950 ft 443 kts 79°
2026-05-04 12:51 48.95886 3.26835 35960 ft 443 kts 80°
2026-05-04 12:51 48.97421 3.35908 35963 ft 443 kts 80°
2026-05-04 12:52 48.98952 3.44994 35967 ft 443 kts 80°
2026-05-04 12:52 49.00477 3.54075 35948 ft 443 kts 80°
2026-05-04 12:53 49.01998 3.63165 35955 ft 443 kts 80°
2026-05-04 12:53 49.03504 3.72267 35959 ft 443 kts 80°
2026-05-04 12:54 49.05004 3.81371 35962 ft 443 kts 80°
2026-05-04 12:54 49.06503 3.90484 35964 ft 443 kts 80°
2026-05-04 12:55 49.07991 3.99608 35963 ft 443 kts 80°
2026-05-04 12:55 49.09481 4.08727 35964 ft 443 kts 80°
2026-05-04 12:56 49.10957 4.17857 35964 ft 443 kts 80°
2026-05-04 12:56 49.12421 4.26982 35962 ft 442 kts 80°
2026-05-04 12:57 49.13932 4.36095 35962 ft 445 kts 75°
2026-05-04 12:57 49.16250 4.44894 35940 ft 447 kts 71°
2026-05-04 12:58 49.18646 4.53681 35954 ft 448 kts 71°
2026-05-04 12:58 49.21030 4.62494 35962 ft 449 kts 71°
2026-05-04 12:59 49.23403 4.71313 35967 ft 447 kts 71°
2026-05-04 12:59 49.25763 4.80119 35969 ft 448 kts 71°
2026-05-04 13:00 49.28121 4.88945 35947 ft 448 kts 71°
2026-05-04 13:00 49.30476 4.97789 35958 ft 449 kts 71°
2026-05-04 13:01 49.32819 5.06660 35966 ft 449 kts 71°
2026-05-04 13:01 49.35166 5.15551 35970 ft 450 kts 71°
2026-05-04 13:02 49.37510 5.24453 35976 ft 450 kts 71°
2026-05-04 13:02 49.39853 5.33358 35978 ft 450 kts 71°
2026-05-04 13:03 49.42182 5.42286 35969 ft 450 kts 71°
2026-05-04 13:03 49.44503 5.51223 35974 ft 451 kts 71°
2026-05-04 13:04 49.46822 5.60170 35976 ft 451 kts 71°
2026-05-04 13:04 49.49129 5.69132 35984 ft 451 kts 71°
2026-05-04 13:05 49.52329 5.77453 35995 ft 456 kts 51°
2026-05-04 13:05 49.57042 5.83901 35977 ft 458 kts 36°
2026-05-04 13:06 49.62339 5.89350 35998 ft 458 kts 31°
2026-05-04 13:06 49.67766 5.94519 36004 ft 458 kts 31°
2026-05-04 13:07 49.73153 5.99788 36005 ft 458 kts 32°
2026-05-04 13:07 49.78526 6.05221 36023 ft 467 kts 33°
2026-05-04 13:08 49.83979 6.10789 36017 ft 471 kts 33°
2026-05-04 13:08 49.89756 6.15510 36015 ft 470 kts 23°
2026-05-04 13:09 49.95724 6.19675 35997 ft 469 kts 24°
2026-05-04 13:09 49.98506 6.22331 35770 ft 470 kts 40°
2026-05-04 13:09 50.00739 6.25987 35524 ft 466 kts 57°
2026-05-04 13:09 50.02269 6.30378 35270 ft 459 kts 73°
2026-05-04 13:10 50.03028 6.35148 35026 ft 452 kts 86°
2026-05-04 13:10 50.03453 6.39907 34758 ft 451 kts 86°
2026-05-04 13:10 50.03883 6.44729 34511 ft 450 kts 86°
2026-05-04 13:10 50.04313 6.49541 34264 ft 448 kts 86°
2026-05-04 13:11 50.04745 6.54340 34030 ft 447 kts 86°
2026-05-04 13:11 50.05176 6.59115 33795 ft 445 kts 86°
2026-05-04 13:11 50.05602 6.63864 33520 ft 442 kts 86°
2026-05-04 13:11 50.06023 6.68588 33246 ft 440 kts 86°
2026-05-04 13:12 50.06436 6.73291 32975 ft 437 kts 86°
2026-05-04 13:12 50.06841 6.77951 32705 ft 435 kts 86°
2026-05-04 13:12 50.07243 6.82603 32438 ft 433 kts 86°
2026-05-04 13:12 50.07635 6.87168 32112 ft 430 kts 86°
2026-05-04 13:13 50.08033 6.91780 31678 ft 429 kts 86°
2026-05-04 13:13 50.08431 6.96369 31171 ft 427 kts 86°
2026-05-04 13:13 50.08826 7.00934 30678 ft 424 kts 86°
2026-05-04 13:13 50.09215 7.05474 30186 ft 422 kts 86°
2026-05-04 13:14 50.09599 7.09986 29633 ft 420 kts 86°
2026-05-04 13:14 50.09976 7.14484 29066 ft 417 kts 86°
2026-05-04 13:14 50.10346 7.18952 28526 ft 415 kts 86°
2026-05-04 13:14 50.10714 7.23398 27974 ft 413 kts 86°
2026-05-04 13:15 50.11084 7.27824 27441 ft 411 kts 86°
2026-05-04 13:15 50.11451 7.32227 26919 ft 410 kts 86°
2026-05-04 13:15 50.11815 7.36621 26394 ft 408 kts 86°
2026-05-04 13:15 50.12174 7.41004 25888 ft 407 kts 86°
2026-05-04 13:16 50.12530 7.45373 25393 ft 406 kts 86°
2026-05-04 13:16 50.12882 7.49718 24907 ft 404 kts 86°
2026-05-04 13:16 50.13232 7.54049 24416 ft 402 kts 86°
2026-05-04 13:16 50.13579 7.58356 23948 ft 399 kts 86°
2026-05-04 13:17 50.13922 7.62638 23476 ft 397 kts 86°
2026-05-04 13:17 50.14261 7.66889 22933 ft 394 kts 86°
2026-05-04 13:17 50.14597 7.71122 22391 ft 392 kts 86°
2026-05-04 13:17 50.14929 7.75325 21865 ft 390 kts 86°
2026-05-04 13:18 50.15257 7.79503 21343 ft 387 kts 86°
2026-05-04 13:18 50.15588 7.83721 20816 ft 386 kts 86°
2026-05-04 13:18 50.15906 7.87802 20327 ft 383 kts 86°
2026-05-04 13:18 50.16222 7.91913 19832 ft 381 kts 86°
2026-05-04 13:19 50.16532 7.95994 19355 ft 379 kts 86°
2026-05-04 13:19 50.16843 8.00053 18880 ft 376 kts 86°
2026-05-04 13:19 50.17150 8.04095 18409 ft 374 kts 86°
2026-05-04 13:19 50.17454 8.08100 17883 ft 369 kts 86°
2026-05-04 13:20 50.17752 8.12018 17446 ft 359 kts 86°
2026-05-04 13:20 50.18041 8.15828 17052 ft 349 kts 86°
2026-05-04 13:20 50.18322 8.19534 16670 ft 340 kts 86°
2026-05-04 13:20 50.18595 8.23154 16373 ft 331 kts 86°
2026-05-04 13:21 50.18857 8.26693 16072 ft 327 kts 86°
2026-05-04 13:21 50.19114 8.30205 15759 ft 325 kts 86°
2026-05-04 13:21 50.19370 8.33710 15456 ft 323 kts 86°
2026-05-04 13:21 50.19626 8.37186 15163 ft 322 kts 86°
2026-05-04 13:22 50.19879 8.40650 14870 ft 320 kts 86°
2026-05-04 13:22 50.20127 8.44090 14581 ft 318 kts 86°
2026-05-04 13:22 50.20374 8.47515 14251 ft 317 kts 86°
2026-05-04 13:22 50.20623 8.50937 13897 ft 318 kts 86°
2026-05-04 13:23 50.20868 8.54333 13511 ft 317 kts 86°
2026-05-04 13:23 50.21109 8.57688 13119 ft 314 kts 86°
2026-05-04 13:23 50.21353 8.61109 12718 ft 312 kts 86°
2026-05-04 13:23 50.21586 8.64409 12333 ft 309 kts 86°
2026-05-04 13:24 50.21821 8.67729 11954 ft 306 kts 86°
2026-05-04 13:24 50.22053 8.71024 11569 ft 304 kts 86°
2026-05-04 13:24 50.22283 8.74294 11072 ft 304 kts 86°
2026-05-04 13:25 50.22737 8.80802 9854 ft 299 kts 86°
2026-05-04 13:25 50.22966 8.84030 9190 ft 297 kts 86°
2026-05-04 13:25 50.23195 8.87221 8538 ft 294 kts 85°
2026-05-04 13:25 50.23411 8.90381 7903 ft 292 kts 86°
2026-05-04 13:26 50.23614 8.93501 7281 ft 289 kts 85°
2026-05-04 13:26 50.23665 8.96614 6660 ft 284 kts 101°
2026-05-04 13:26 50.22934 8.99413 6041 ft 277 kts 129°
2026-05-04 13:26 50.21499 9.01308 5403 ft 269 kts 158°
2026-05-04 13:27 50.19718 9.01884 4784 ft 260 kts 187°
2026-05-04 13:27 50.18056 9.00967 4540 ft 255 kts 216°
2026-05-04 13:27 50.16693 8.99199 4334 ft 255 kts 223°
2026-05-04 13:27 50.15394 8.97345 4124 ft 249 kts 223°
2026-05-04 13:28 50.14159 8.95559 4000 ft 235 kts 224°
2026-05-04 13:28 50.13001 8.93889 4002 ft 218 kts 224°
2026-05-04 13:28 50.12010 8.92238 3995 ft 202 kts 239°
2026-05-04 13:28 50.11482 8.90296 4004 ft 189 kts 249°
2026-05-04 13:29 50.11046 8.88431 4000 ft 182 kts 250°
2026-05-04 13:29 50.10617 8.86605 3972 ft 177 kts 250°
2026-05-04 13:29 50.10203 8.84843 3859 ft 171 kts 250°
2026-05-04 13:29 50.09795 8.83110 3621 ft 173 kts 250°
2026-05-04 13:30 50.09373 8.81321 3398 ft 177 kts 249°
2026-05-04 13:30 50.08953 8.79537 3159 ft 174 kts 249°
2026-05-04 13:30 50.08541 8.77791 2929 ft 171 kts 249°
2026-05-04 13:30 50.08134 8.76071 2704 ft 168 kts 250°
2026-05-04 13:31 50.07743 8.74413 2484 ft 158 kts 249°
2026-05-04 13:31 50.07380 8.72878 2286 ft 144 kts 250°
2026-05-04 13:31 50.07054 8.71505 2108 ft 130 kts 249°
2026-05-04 13:31 50.06751 8.70226 1938 ft 123 kts 249°
2026-05-04 13:32 50.06460 8.68997 1787 ft 120 kts 249°
2026-05-04 13:32 50.06170 8.67772 1622 ft 121 kts 249°
2026-05-04 13:32 50.05975 8.66953 1507 ft 123 kts 249°
2026-05-04 13:32 50.05682 8.65730 1368 ft 119 kts 248°
2026-05-04 13:33 50.05396 8.64512 1213 ft 122 kts 250°
2026-05-04 13:33 50.05105 8.63271 1035 ft 122 kts 249°
2026-05-04 13:33 50.04803 8.62007 839 ft 125 kts 249°
2026-05-04 13:33 50.04505 8.60743 684 ft 123 kts 248°
2026-05-04 13:34 50.04201 8.59478 524 ft 124 kts 248°
2026-05-04 13:34 50.03902 8.58228 400 ft 122 kts 245°
2026-05-04 13:34 50.03624 8.57081 352 ft 96 kts 249°
2026-05-04 13:34 50.03464 8.56383 351 ft 40 kts 251°
2026-05-04 13:35 50.03439 8.56065 350 ft 29 kts 274°
2026-05-04 13:35 50.03493 8.55534 352 ft 19 kts 278°
2026-05-04 13:35 50.03457 8.55327 348 ft 21 kts 248°
2026-05-04 13:36 50.03403 8.55108 348 ft 22 kts 250°
2026-05-04 13:36 50.03348 8.54872 342 ft 24 kts 250°
2026-05-04 13:36 50.03292 8.54636 338 ft 17 kts 249°
2026-05-04 13:36 50.03312 8.54480 336 ft 16 kts 338°
2026-05-04 13:37 50.03380 8.54442 337 ft 0 kts 339°
2026-05-04 13:38 50.03381 8.54442 337 ft 1 kts 339°
2026-05-04 13:38 50.03396 8.54432 340 ft 4 kts 339°
2026-05-04 13:38 50.03446 8.54402 347 ft 9 kts 339°
2026-05-04 13:38 50.03527 8.54353 346 ft 14 kts 339°
2026-05-04 13:39 50.03631 8.54303 346 ft 16 kts
2026-05-04 13:39 50.03688 8.54439 346 ft 17 kts 71°
2026-05-04 13:39 50.03730 8.54620 348 ft 18 kts 70°
2026-05-04 13:39 50.03776 8.54808 348 ft 21 kts 69°
2026-05-04 13:40 50.03829 8.55026 354 ft 22 kts 69°
2026-05-04 13:40 50.03882 8.55250 357 ft 22 kts 70°
2026-05-04 13:40 50.03937 8.55482 350 ft 23 kts 70°
2026-05-04 13:40 50.03995 8.55726 349 ft 24 kts 70°
2026-05-04 13:41 50.04054 8.55975 356 ft 25 kts 70°
2026-05-04 13:41 50.04115 8.56227 356 ft 25 kts 69°
2026-05-04 13:41 50.04177 8.56483 359 ft 25 kts 69°
2026-05-04 13:42 50.04219 8.56659 361 ft 7 kts 70°
2026-05-04 13:42 50.04220 8.56665 361 ft 0 kts 70°
2026-05-04 13:44 50.04221 8.56667 361 ft 1 kts 70°
2026-05-04 13:44 50.04226 8.56689 357 ft 4 kts 70°
2026-05-04 13:45 50.04238 8.56740 359 ft 7 kts 70°
2026-05-04 13:45 50.04275 8.56804 360 ft 10 kts 20°
2026-05-04 13:45 50.04351 8.56828 360 ft 14 kts 11°
2026-05-04 13:45 50.04468 8.56860 361 ft 19 kts 12°
2026-05-04 13:46 50.04605 8.56909 360 ft 22 kts 13°
2026-05-04 13:46 50.04748 8.57000 362 ft 21 kts 25°
2026-05-04 13:46 50.04839 8.57067 358 ft 9 kts 31°
2026-05-04 13:46 50.04833 8.57118 360 ft 4 kts 117°
2026-05-04 13:47 50.04821 8.57159 360 ft 5 kts 115°
2026-05-04 13:47 50.04814 8.57180 360 ft 0 kts 114°
2026-05-04 13:47 50.04813 8.57184 360 ft 0 kts 114°